| time (UTC) | temp C | wind direction | speed KPH | gust KPH | rain 1hr cm | rain 24hr cm | rain mn cm | humidity % | barometer mb |
| 20260901205504 | 38 | 86 | 8.0 | 22.5 | 0.00 | 0.00 | 0.00 | 39 | 1013.8 |
| 20260901205004 | 38 | 58 | 6.4 | 16.1 | 0.00 | 0.00 | 0.00 | 39 | 1013.7 |
| 20260901204504 | 38 | 51 | 6.4 | 12.9 | 0.00 | 0.00 | 0.00 | 40 | 1013.7 |
| 20260901204003 | 37 | 102 | 8.0 | 19.3 | 0.00 | 0.00 | 0.00 | 42 | 1013.9 |
| 20260901203504 | 37 | 120 | 6.4 | 19.3 | 0.00 | 0.00 | 0.00 | 42 | 1014.0 |
| 20260901203004 | 36 | 87 | 6.4 | 16.1 | 0.00 | 0.00 | 0.00 | 42 | 1014.1 |
| 20260901202504 | 36 | 105 | 8.0 | 17.7 | 0.00 | 0.00 | 0.00 | 41 | 1014.1 |
| 20260901202004 | 37 | 117 | 6.4 | 17.7 | 0.00 | 0.00 | 0.00 | 41 | 1014.2 |
| 20260901201504 | 36 | 143 | 6.4 | 16.1 | 0.00 | 0.00 | 0.00 | 44 | 1014.3 |
| 20260901201004 | 36 | 143 | 6.4 | 16.1 | 0.00 | 0.00 | 0.00 | 44 | 1014.4 |
| 20260901200503 | 36 | 134 | 6.4 | 16.1 | 0.00 | 0.00 | 0.00 | 44 | 1014.4 |
| 20260901200004 | 36 | 125 | 8.0 | 16.1 | 0.00 | 0.00 | 0.00 | 43 | 1014.5 |
| 20260901195504 | 36 | 114 | 6.4 | 16.1 | 0.00 | 0.00 | 0.00 | 43 | 1014.6 |
| 20260901195004 | 37 | 152 | 3.2 | 12.9 | 0.00 | 0.00 | 0.00 | 44 | 1014.7 |
| 20260901194503 | 37 | 152 | 3.2 | 12.9 | 0.00 | 0.00 | 0.00 | 43 | 1014.8 |
| 20260901194004 | 37 | 149 | 3.2 | 8.0 | 0.00 | 0.00 | 0.00 | 42 | 1014.8 |
| 20260901193504 | 37 | 173 | 3.2 | 9.7 | 0.00 | 0.00 | 0.00 | 42 | 1014.8 |
| 20260901193004 | 37 | 113 | 3.2 | 11.3 | 0.00 | 0.00 | 0.00 | 42 | 1014.9 |
| 20260901192504 | 37 | 57 | 6.4 | 11.3 | 0.00 | 0.00 | 0.00 | 44 | 1015.0 |
| 20260901192004 | 36 | 148 | 3.2 | 11.3 | 0.00 | 0.00 | 0.00 | 45 | 1015.0 |
| 20260901191504 | 36 | 170 | 3.2 | 11.3 | 0.00 | 0.00 | 0.00 | 44 | 1015.0 |
| 20260901191003 | 36 | 132 | 6.4 | 11.3 | 0.00 | 0.00 | 0.00 | 44 | 1015.2 |
| 20260901190504 | 36 | 99 | 3.2 | 11.3 | 0.00 | 0.00 | 0.00 | 43 | 1015.2 |
| 20260901190004 | 37 | 126 | 3.2 | 11.3 | 0.00 | 0.00 | 0.00 | 44 | 1015.3 |
| 20260901185504 | 37 | 105 | 3.2 | 12.9 | 0.00 | 0.00 | 0.00 | 42 | 1015.5 |
| 20260901185004 | 37 | 104 | 3.2 | 19.3 | 0.00 | 0.00 | 0.00 | 43 | 1015.4 |
| 20260901184504 | 38 | 97 | 6.4 | 19.3 | 0.00 | 0.00 | 0.00 | 41 | 1015.5 |
| 20260901184003 | 38 | 124 | 8.0 | 19.3 | 0.00 | 0.00 | 0.00 | 42 | 1015.6 |
| 20260901183504 | 38 | 152 | 8.0 | 17.7 | 0.00 | 0.00 | 0.00 | 42 | 1015.8 |
| 20260901183024 | 38 | 126 | 9.7 | 20.9 | 0.00 | 0.00 | 0.00 | 42 | 1015.8 |
| 20260901182524 | 37 | 126 | 8.0 | 20.9 | 0.00 | 0.00 | 0.00 | 44 | 1016.0 |
| 20260901182004 | 37 | 137 | 8.0 | 19.3 | 0.00 | 0.00 | 0.00 | 44 | 1015.9 |
| 20260901181504 | 37 | 145 | 9.7 | 19.3 | 0.00 | 0.00 | 0.00 | 45 | 1016.0 |
| 20260901181003 | 36 | 145 | 8.0 | 20.9 | 0.00 | 0.00 | 0.00 | 45 | 1016.1 |
| 20260901180503 | 36 | 109 | 3.2 | 20.9 | 0.00 | 0.00 | 0.00 | 47 | 1016.2 |
| 20260901180004 | 36 | 45 | 3.2 | 11.3 | 0.00 | 0.00 | 0.00 | 47 | 1016.4 |
| 20260901175503 | 36 | 59 | 6.4 | 11.3 | 0.00 | 0.00 | 0.00 | 48 | 1016.5 |
| 20260901175003 | 36 | 86 | 8.0 | 25.7 | 0.00 | 0.00 | 0.00 | 48 | 1016.6 |
| 20260901174503 | 36 | 101 | 8.0 | 25.7 | 0.00 | 0.00 | 0.00 | 49 | 1016.7 |
| 20260901174003 | 35 | 99 | 6.4 | 27.4 | 0.00 | 0.00 | 0.00 | 50 | 1016.7 |
| 20260901173503 | 35 | 119 | 6.4 | 27.4 | 0.00 | 0.00 | 0.00 | 50 | 1016.8 |
| 20260901173003 | 35 | 159 | 6.4 | 16.1 | 0.00 | 0.00 | 0.00 | 51 | 1016.8 |
| 20260901172524 | 35 | 149 | 8.0 | 17.7 | 0.00 | 0.00 | 0.00 | 51 | 1016.8 |
| 20260901172003 | 35 | 139 | 8.0 | 19.3 | 0.00 | 0.00 | 0.00 | 51 | 1017.0 |
| 20260901171504 | 35 | 127 | 6.4 | 16.1 | 0.00 | 0.00 | 0.00 | 51 | 1017.0 |
| 20260901171003 | 34 | 30 | 6.4 | 17.7 | 0.00 | 0.00 | 0.00 | 53 | 1017.0 |
| 20260901170503 | 34 | 58 | 6.4 | 17.7 | 0.00 | 0.00 | 0.00 | 54 | 1017.0 |
| 20260901170004 | 34 | 85 | 6.4 | 16.1 | 0.00 | 0.00 | 0.00 | 53 | 1017.1 |
| 20260901165503 | 33 | 110 | 8.0 | 20.9 | 0.00 | 0.00 | 0.00 | 54 | 1017.2 |
| 20260901165004 | 33 | 140 | 8.0 | 20.9 | 0.00 | 0.00 | 0.00 | 54 | 1017.2 |
| 20260901164504 | 33 | 124 | 3.2 | 17.7 | 0.00 | 0.00 | 0.00 | 55 | 1017.2 |
| 20260901164004 | 33 | 112 | 3.2 | 12.9 | 0.00 | 0.00 | 0.00 | 56 | 1017.1 |
| 20260901163503 | 33 | 136 | 8.0 | 20.9 | 0.00 | 0.00 | 0.00 | 56 | 1017.2 |
| 20260901163003 | 32 | 136 | 9.7 | 20.9 | 0.00 | 0.00 | 0.00 | 57 | 1017.4 |
| 20260901162504 | 32 | 142 | 8.0 | 16.1 | 0.00 | 0.00 | 0.00 | 58 | 1017.4 |
| 20260901162003 | 32 | 150 | 6.4 | 12.9 | 0.00 | 0.00 | 0.00 | 58 | 1017.4 |
| 20260901161503 | 32 | 169 | 3.2 | 9.7 | 0.00 | 0.00 | 0.00 | 61 | 1017.6 |
| 20260901161003 | 32 | 115 | 6.4 | 9.7 | 0.00 | 0.00 | 0.00 | 61 | 1017.6 |
| 20260901160503 | 31 | 87 | 6.4 | 11.3 | 0.00 | 0.00 | 0.00 | 62 | 1017.6 |
| 20260901160003 | 31 | 108 | 3.2 | 11.3 | 0.00 | 0.00 | 0.00 | 61 | 1017.6 |
| 20260901155503 | 31 | 99 | 3.2 | 9.7 | 0.00 | 0.00 | 0.00 | 62 | 1017.6 |
| 20260901155025 | 31 | 14 | 3.2 | 9.7 | 0.00 | 0.00 | 0.00 | 64 | 1017.6 |
| 20260901154504 | 31 | 278 | 3.2 | 8.0 | 0.00 | 0.00 | 0.00 | 67 | 1017.5 |
| 20260901154003 | 30 | 274 | 3.2 | 8.0 | 0.00 | 0.00 | 0.00 | 68 | 1017.5 |
| 20260901153503 | 30 | 292 | 3.2 | 11.3 | 0.00 | 0.00 | 0.00 | 71 | 1017.5 |
| 20260901153003 | 30 | 274 | 3.2 | 11.3 | 0.00 | 0.00 | 0.00 | 71 | 1017.4 |
| 20260901152524 | 30 | 219 | 3.2 | 11.3 | 0.00 | 0.00 | 0.00 | 72 | 1017.4 |
| 20260901152003 | 30 | 217 | 1.6 | 8.0 | 0.00 | 0.00 | 0.00 | 73 | 1017.4 |
| 20260901151503 | 29 | 250 | 1.6 | 6.4 | 0.00 | 0.00 | 0.00 | 73 | 1017.4 |
| 20260901151024 | 29 | 257 | 3.2 | 8.0 | 0.00 | 0.00 | 0.00 | 74 | 1017.4 |
| 20260901150503 | 28 | 242 | 3.2 | 9.7 | 0.00 | 0.00 | 0.00 | 76 | 1017.5 |
| 20260901150003 | 28 | 242 | 3.2 | 8.0 | 0.00 | 0.00 | 0.00 | 76 | 1017.5 |
| 20260901145503 | 28 | 286 | 3.2 | 8.0 | 0.00 | 0.00 | 0.00 | 77 | 1017.6 |
| 20260901145003 | 28 | 293 | 3.2 | 8.0 | 0.00 | 0.00 | 0.00 | 78 | 1017.6 |
| 20260901144503 | 28 | 249 | 3.2 | 8.0 | 0.00 | 0.00 | 0.00 | 80 | 1017.6 |
| 20260901144003 | 27 | 208 | 3.2 | 8.0 | 0.00 | 0.00 | 0.00 | 82 | 1017.7 |
| 20260901143503 | 27 | 183 | 3.2 | 8.0 | 0.00 | 0.00 | 0.00 | 83 | 1017.6 |
| 20260901143003 | 27 | 190 | 3.2 | 8.0 | 0.00 | 0.00 | 0.00 | 85 | 1017.7 |
| 20260901142503 | 26 | 234 | 3.2 | 8.0 | 0.00 | 0.00 | 0.00 | 87 | 1017.7 |
| 20260901142003 | 26 | 258 | 6.4 | 12.9 | 0.00 | 0.00 | 0.00 | 89 | 1017.8 |
| 20260901141524 | 26 | 268 | 6.4 | 12.9 | 0.00 | 0.00 | 0.00 | 90 | 1017.9 |
| 20260901141003 | 26 | 266 | 3.2 | 12.9 | 0.00 | 0.00 | 0.00 | 91 | 1017.8 |
| 20260901140524 | 25 | 260 | 3.2 | 11.3 | 0.00 | 0.00 | 0.00 | 92 | 1017.9 |
| 20260901140003 | 25 | 251 | 3.2 | 8.0 | 0.00 | 0.00 | 0.00 | 92 | 1017.9 |
| 20260901135503 | 25 | 236 | 3.2 | 8.0 | 0.00 | 0.00 | 0.00 | 92 | 1017.9 |
| 20260901135003 | 25 | 215 | 1.6 | 6.4 | 0.00 | 0.00 | 0.00 | 92 | 1017.8 |
| 20260901134503 | 25 | 176 | 1.6 | 3.2 | 0.00 | 0.00 | 0.00 | 92 | 1017.6 |
| 20260901134003 | 24 | 176 | 0.0 | 1.6 | 0.00 | 0.00 | 0.00 | 92 | 1017.5 |
| 20260901133503 | 24 | 176 | 0.0 | 3.2 | 0.00 | 0.00 | 0.00 | 92 | 1017.5 |
| 20260901133003 | 23 | 176 | 1.6 | 3.2 | 0.00 | 0.00 | 0.00 | 91 | 1017.5 |
| 20260901132503 | 23 | 176 | 0.0 | 3.2 | 0.00 | 0.00 | 0.00 | 91 | 1017.5 |
| 20260901132003 | 23 | 176 | 0.0 | 1.6 | 0.00 | 0.00 | 0.00 | 90 | 1017.4 |
| 20260901131503 | 23 | 0 | 0.0 | 0.0 | 0.00 | 0.00 | 0.00 | 89 | 1017.4 |
| 20260901131003 | 23 | 0 | 0.0 | 0.0 | 0.00 | 0.00 | 0.00 | 89 | 1017.4 |
| 20260901130503 | 23 | 0 | 0.0 | 0.0 | 0.00 | 0.00 | 0.00 | 88 | 1017.3 |
| 20260901130004 | 23 | 0 | 0.0 | 0.0 | 0.00 | 0.00 | 0.00 | 88 | 1017.3 |
| 20260901125503 | 23 | 0 | 0.0 | 0.0 | 0.00 | 0.00 | 0.00 | 88 | 1017.2 |
| 20260901125024 | 23 | 0 | 0.0 | 0.0 | 0.00 | 0.00 | 0.00 | 87 | 1017.2 |
| 20260901124504 | 22 | 0 | 0.0 | 0.0 | 0.00 | 0.00 | 0.00 | 87 | 1017.2 |
| 20260901124024 | 22 | 176 | 0.0 | 1.6 | 0.00 | 0.00 | 0.00 | 87 | 1017.2 |
| 20260901123503 | 23 | 176 | 0.0 | 1.6 | 0.00 | 0.00 | 0.00 | 86 | 1017.1 |
| 20260901123003 | 23 | 176 | 0.0 | 1.6 | 0.00 | 0.00 | 0.00 | 87 | 1017.1 |
| 20260901122524 | 23 | 176 | 0.0 | 1.6 | 0.00 | 0.00 | 0.00 | 86 | 1017.1 |
| 20260901122003 | 23 | 0 | 0.0 | 0.0 | 0.00 | 0.00 | 0.00 | 86 | 1017.0 |
| 20260901121504 | 23 | 0 | 0.0 | 0.0 | 0.00 | 0.00 | 0.00 | 86 | 1016.9 |
| 20260901121004 | 23 | 0 | 0.0 | 0.0 | 0.00 | 0.00 | 0.00 | 86 | 1017.0 |
| 20260901120504 | 23 | 176 | 0.0 | 1.6 | 0.00 | 0.00 | 0.00 | 86 | 1016.9 |
| 20260901120004 | 23 | 176 | 0.0 | 1.6 | 0.00 | 0.00 | 0.00 | 86 | 1016.9 |
| 20260901115504 | 23 | 176 | 0.0 | 1.6 | 0.00 | 0.00 | 0.00 | 86 | 1017.0 |
| 20260901115004 | 23 | 176 | 0.0 | 1.6 | 0.00 | 0.00 | 0.00 | 86 | 1017.0 |
| 20260901114504 | 23 | 176 | 0.0 | 1.6 | 0.00 | 0.00 | 0.00 | 85 | 1016.9 |
| 20260901114004 | 23 | 176 | 0.0 | 1.6 | 0.00 | 0.00 | 0.00 | 86 | 1016.8 |
| 20260901113525 | 23 | 176 | 0.0 | 1.6 | 0.00 | 0.00 | 0.00 | 86 | 1016.8 |
| 20260901113025 | 23 | 176 | 0.0 | 1.6 | 0.00 | 0.00 | 0.00 | 86 | 1016.7 |
| 20260901112504 | 23 | 0 | 0.0 | 0.0 | 0.00 | 0.00 | 0.00 | 85 | 1016.7 |
| 20260901112025 | 23 | 0 | 0.0 | 0.0 | 0.00 | 0.00 | 0.00 | 85 | 1016.6 |
| 20260901111504 | 23 | 176 | 0.0 | 1.6 | 0.00 | 0.00 | 0.00 | 85 | 1016.6 |
| 20260901111004 | 23 | 176 | 0.0 | 1.6 | 0.00 | 0.00 | 0.00 | 85 | 1016.6 |
| 20260901110504 | 23 | 176 | 0.0 | 3.2 | 0.00 | 0.00 | 0.00 | 85 | 1016.6 |
| 20260901110004 | 23 | 176 | 1.6 | 3.2 | 0.00 | 0.00 | 0.00 | 85 | 1016.5 |
| 20260901105504 | 23 | 176 | 1.6 | 1.6 | 0.00 | 0.00 | 0.00 | 85 | 1016.5 |
| 20260901105004 | 23 | 176 | 0.0 | 3.2 | 0.00 | 0.00 | 0.00 | 84 | 1016.4 |
| 20260901104504 | 24 | 176 | 0.0 | 3.2 | 0.00 | 0.00 | 0.00 | 84 | 1016.5 |
| 20260901104025 | 24 | 176 | 0.0 | 3.2 | 0.00 | 0.00 | 0.00 | 84 | 1016.5 |
| 20260901103504 | 24 | 176 | 0.0 | 1.6 | 0.00 | 0.00 | 0.00 | 84 | 1016.5 |
| 20260901103004 | 24 | 176 | 0.0 | 3.2 | 0.00 | 0.00 | 0.00 | 83 | 1016.5 |
| 20260901102504 | 24 | 176 | 0.0 | 3.2 | 0.00 | 0.00 | 0.00 | 83 | 1016.5 |
| 20260901102004 | 24 | 176 | 0.0 | 1.6 | 0.00 | 0.00 | 0.00 | 83 | 1016.5 |
| 20260901101504 | 24 | 176 | 0.0 | 1.6 | 0.00 | 0.00 | 0.00 | 83 | 1016.5 |
| 20260901101004 | 24 | 176 | 0.0 | 3.2 | 0.00 | 0.00 | 0.00 | 83 | 1016.6 |
| 20260901100504 | 24 | 176 | 0.0 | 3.2 | 0.00 | 0.00 | 0.00 | 83 | 1016.5 |
| 20260901100004 | 24 | 176 | 0.0 | 3.2 | 0.00 | 0.00 | 0.00 | 83 | 1016.5 |
| 20260901095525 | 25 | 176 | 1.6 | 3.2 | 0.00 | 0.00 | 0.00 | 83 | 1016.6 |
| 20260901095004 | 25 | 176 | 0.0 | 1.6 | 0.00 | 0.00 | 0.00 | 82 | 1016.7 |
| 20260901094504 | 25 | 176 | 0.0 | 3.2 | 0.00 | 0.00 | 0.00 | 82 | 1016.7 |
| 20260901094004 | 25 | 176 | 1.6 | 3.2 | 0.00 | 0.00 | 0.00 | 82 | 1016.8 |
| 20260901093504 | 25 | 176 | 0.0 | 1.6 | 0.00 | 0.00 | 0.00 | 82 | 1016.9 |
| 20260901093004 | 25 | 176 | 0.0 | 1.6 | 0.00 | 0.00 | 0.00 | 82 | 1017.0 |
| 20260901092504 | 25 | 176 | 1.6 | 3.2 | 0.00 | 0.00 | 0.00 | 82 | 1017.0 |
| 20260901092025 | 25 | 176 | 1.6 | 6.4 | 0.00 | 0.00 | 0.00 | 82 | 1017.0 |
| 20260901091504 | 25 | 176 | 3.2 | 6.4 | 0.00 | 0.00 | 0.00 | 82 | 1016.9 |
| 20260901091003 | 25 | 176 | 1.6 | 3.2 | 0.00 | 0.00 | 0.00 | 82 | 1016.9 |
| 20260901090504 | 25 | 176 | 1.6 | 3.2 | 0.00 | 0.00 | 0.00 | 81 | 1016.9 |
| 20260901090004 | 25 | 176 | 1.6 | 6.4 | 0.00 | 0.00 | 0.00 | 81 | 1016.8 |
| 20260901085504 | 25 | 176 | 1.6 | 6.4 | 0.00 | 0.00 | 0.00 | 80 | 1016.7 |
| 20260901085004 | 25 | 176 | 1.6 | 6.4 | 0.00 | 0.00 | 0.00 | 80 | 1016.7 |
| 20260901084504 | 25 | 176 | 1.6 | 6.4 | 0.00 | 0.00 | 0.00 | 80 | 1016.7 |
| 20260901084004 | 26 | 176 | 1.6 | 3.2 | 0.00 | 0.00 | 0.00 | 79 | 1016.7 |
| 20260901083504 | 26 | 176 | 1.6 | 3.2 | 0.00 | 0.00 | 0.00 | 79 | 1016.7 |
| 20260901083025 | 26 | 176 | 1.6 | 3.2 | 0.00 | 0.00 | 0.00 | 79 | 1016.7 |
| 20260901082504 | 26 | 176 | 1.6 | 3.2 | 0.00 | 0.00 | 0.00 | 79 | 1016.7 |
| 20260901082003 | 26 | 176 | 1.6 | 6.4 | 0.00 | 0.00 | 0.00 | 79 | 1016.8 |
| 20260901081504 | 26 | 176 | 1.6 | 6.4 | 0.00 | 0.00 | 0.00 | 78 | 1016.8 |
| 20260901081004 | 26 | 176 | 3.2 | 6.4 | 0.00 | 0.00 | 0.00 | 78 | 1016.8 |
| 20260901080504 | 26 | 176 | 3.2 | 6.4 | 0.00 | 0.00 | 0.00 | 77 | 1016.9 |
| 20260901080004 | 26 | 176 | 3.2 | 6.4 | 0.00 | 0.00 | 0.00 | 76 | 1017.0 |
| 20260901075504 | 26 | 176 | 1.6 | 3.2 | 0.00 | 0.00 | 0.00 | 76 | 1017.0 |
| 20260901075004 | 26 | 176 | 1.6 | 3.2 | 0.00 | 0.00 | 0.00 | 76 | 1016.9 |
| 20260901074504 | 26 | 176 | 1.6 | 6.4 | 0.00 | 0.00 | 0.00 | 76 | 1017.0 |
| 20260901074024 | 26 | 176 | 1.6 | 6.4 | 0.00 | 0.00 | 0.00 | 76 | 1017.0 |
| 20260901073504 | 26 | 176 | 1.6 | 3.2 | 0.00 | 0.00 | 0.00 | 75 | 1016.9 |
| 20260901073003 | 27 | 176 | 1.6 | 6.4 | 0.00 | 0.00 | 0.00 | 75 | 1016.9 |
| 20260901072504 | 27 | 175 | 3.2 | 9.7 | 0.00 | 0.00 | 0.00 | 75 | 1016.8 |
| 20260901072025 | 27 | 173 | 3.2 | 9.7 | 0.00 | 0.00 | 0.00 | 75 | 1016.7 |
| 20260901071524 | 27 | 171 | 3.2 | 8.0 | 0.00 | 0.00 | 0.00 | 73 | 1016.7 |
| 20260901071025 | 27 | 171 | 1.6 | 8.0 | 0.00 | 0.00 | 0.00 | 73 | 1016.8 |
| 20260901070504 | 27 | 171 | 3.2 | 8.0 | 0.00 | 0.00 | 0.00 | 73 | 1016.8 |
| 20260901070004 | 27 | 171 | 3.2 | 8.0 | 0.00 | 0.00 | 0.00 | 73 | 1016.7 |
| 20260901065504 | 27 | 172 | 3.2 | 6.4 | 0.00 | 0.00 | 0.00 | 72 | 1016.6 |
| 20260901065003 | 27 | 173 | 3.2 | 6.4 | 0.00 | 0.00 | 0.00 | 72 | 1016.6 |
| 20260901064525 | 27 | 173 | 3.2 | 8.0 | 0.00 | 0.00 | 0.00 | 72 | 1016.5 |
| 20260901064003 | 27 | 155 | 3.2 | 8.0 | 0.00 | 0.00 | 0.00 | 71 | 1016.5 |
| 20260901063504 | 27 | 136 | 3.2 | 9.7 | 0.00 | 0.00 | 0.00 | 71 | 1016.6 |
| 20260901063004 | 28 | 130 | 6.4 | 9.7 | 0.00 | 0.00 | 0.00 | 71 | 1016.6 |
| 20260901062504 | 28 | 140 | 3.2 | 9.7 | 0.00 | 0.00 | 0.00 | 70 | 1016.5 |
| 20260901062003 | 28 | 159 | 3.2 | 9.7 | 0.00 | 0.00 | 0.00 | 70 | 1016.5 |
| 20260901061525 | 28 | 147 | 6.4 | 12.9 | 0.00 | 0.00 | 0.00 | 70 | 1016.4 |
| 20260901061004 | 28 | 147 | 6.4 | 12.9 | 0.00 | 0.00 | 0.00 | 70 | 1016.3 |
| 20260901060504 | 28 | 165 | 8.0 | 11.3 | 0.00 | 0.00 | 0.00 | 70 | 1016.4 |
| 20260901060003 | 28 | 167 | 8.0 | 12.9 | 0.00 | 0.00 | 0.00 | 69 | 1016.2 |
| 20260901055503 | 28 | 166 | 6.4 | 12.9 | 0.00 | 0.00 | 0.00 | 69 | 1016.2 |
| 20260901055004 | 28 | 163 | 6.4 | 12.9 | 0.00 | 0.00 | 0.00 | 68 | 1016.3 |
| 20260901054524 | 28 | 166 | 6.4 | 12.9 | 0.00 | 0.00 | 0.00 | 68 | 1016.3 |
| 20260901054004 | 28 | 166 | 8.0 | 12.9 | 0.00 | 0.00 | 0.00 | 68 | 1016.2 |
| 20260901053504 | 28 | 157 | 6.4 | 12.9 | 0.00 | 0.00 | 0.00 | 68 | 1016.3 |
| 20260901053003 | 28 | 152 | 8.0 | 12.9 | 0.00 | 0.00 | 0.00 | 68 | 1016.2 |
| 20260901052524 | 28 | 156 | 8.0 | 12.9 | 0.00 | 0.00 | 0.00 | 67 | 1016.2 |
| 20260901052025 | 28 | 159 | 8.0 | 16.1 | 0.00 | 0.00 | 0.00 | 67 | 1016.2 |
| 20260901051504 | 29 | 155 | 9.7 | 20.9 | 0.00 | 0.00 | 0.00 | 67 | 1016.1 |
| 20260901051025 | 29 | 159 | 9.7 | 20.9 | 0.00 | 0.00 | 0.00 | 67 | 1016.1 |
| 20260901050525 | 29 | 162 | 8.0 | 20.9 | 0.00 | 0.00 | 0.00 | 67 | 1016.2 |
| 20260901050004 | 29 | 163 | 6.4 | 12.9 | 0.00 | 0.00 | 0.00 | 68 | 1016.2 |
| 20260901045504 | 29 | 153 | 8.0 | 19.3 | 0.00 | 0.00 | 0.00 | 67 | 1016.1 |
| 20260901045003 | 30 | 149 | 8.0 | 19.3 | 0.00 | 0.00 | 0.00 | 67 | 1016.0 |
| 20260901044505 | 30 | 147 | 6.4 | 12.9 | 0.00 | 0.00 | 0.00 | 67 | 1016.1 |
| 20260901044004 | 30 | 145 | 8.0 | 17.7 | 0.00 | 0.00 | 0.00 | 67 | 1016.0 |
| 20260901043504 | 30 | 148 | 8.0 | 17.7 | 0.00 | 0.00 | 0.00 | 67 | 1016.0 |
| 20260901043004 | 30 | 154 | 8.0 | 16.1 | 0.00 | 0.00 | 0.00 | 66 | 1016.0 |
| 20260901042503 | 30 | 155 | 8.0 | 16.1 | 0.00 | 0.00 | 0.00 | 66 | 1015.9 |
| 20260901042003 | 30 | 144 | 8.0 | 16.1 | 0.00 | 0.00 | 0.00 | 66 | 1016.0 |
| 20260901041503 | 30 | 142 | 9.7 | 17.7 | 0.00 | 0.00 | 0.00 | 65 | 1015.9 |
| 20260901041004 | 30 | 138 | 8.0 | 17.7 | 0.00 | 0.00 | 0.00 | 65 | 1016.0 |
| 20260901040504 | 30 | 134 | 8.0 | 20.9 | 0.00 | 0.00 | 0.00 | 65 | 1016.0 |
| 20260901040003 | 30 | 135 | 9.7 | 20.9 | 0.00 | 0.00 | 0.00 | 64 | 1015.9 |
| 20260901035503 | 30 | 138 | 9.7 | 20.9 | 0.00 | 0.00 | 0.00 | 64 | 1015.9 |
| 20260901035004 | 30 | 137 | 9.7 | 20.9 | 0.00 | 0.00 | 0.00 | 64 | 1015.8 |
| 20260901034503 | 30 | 134 | 9.7 | 27.4 | 0.00 | 0.00 | 0.00 | 64 | 1015.8 |
| 20260901034024 | 30 | 137 | 9.7 | 27.4 | 0.00 | 0.00 | 0.00 | 64 | 1015.8 |
| 20260901033503 | 30 | 134 | 9.7 | 22.5 | 0.00 | 0.00 | 0.00 | 63 | 1015.8 |
| 20260901033024 | 30 | 131 | 9.7 | 22.5 | 0.00 | 0.00 | 0.00 | 63 | 1015.8 |
| 20260901032524 | 30 | 131 | 9.7 | 19.3 | 0.00 | 0.00 | 0.00 | 62 | 1015.8 |
| 20260901032003 | 30 | 125 | 8.0 | 19.3 | 0.00 | 0.00 | 0.00 | 61 | 1015.7 |
| 20260901031504 | 30 | 121 | 9.7 | 17.7 | 0.00 | 0.00 | 0.00 | 61 | 1015.6 |
| 20260901031003 | 30 | 118 | 9.7 | 17.7 | 0.00 | 0.00 | 0.00 | 60 | 1015.5 |
| 20260901030503 | 30 | 123 | 9.7 | 19.3 | 0.00 | 0.00 | 0.00 | 59 | 1015.4 |
| 20260901030003 | 30 | 122 | 9.7 | 22.5 | 0.00 | 0.00 | 0.00 | 58 | 1015.4 |
| 20260901025503 | 30 | 119 | 9.7 | 22.5 | 0.00 | 0.00 | 0.00 | 56 | 1015.3 |
| 20260901025003 | 30 | 115 | 8.0 | 19.3 | 0.00 | 0.00 | 0.00 | 54 | 1015.2 |
| 20260901024503 | 30 | 112 | 8.0 | 17.7 | 0.00 | 0.00 | 0.00 | 53 | 1015.0 |
| 20260901024003 | 30 | 120 | 9.7 | 17.7 | 0.00 | 0.00 | 0.00 | 52 | 1015.0 |
| 20260901023503 | 30 | 121 | 8.0 | 30.6 | 0.00 | 0.00 | 0.00 | 51 | 1014.9 |
| 20260901023003 | 31 | 116 | 1.6 | 30.6 | 0.00 | 0.00 | 0.00 | 50 | 1014.8 |
| 20260901022503 | 31 | 117 | 0.0 | 3.2 | 0.00 | 0.00 | 0.00 | 50 | 1014.6 |
| 20260901022024 | 31 | 117 | 0.0 | 3.2 | 0.00 | 0.00 | 0.00 | 50 | 1014.5 |
| 20260901021503 | 31 | 117 | 1.6 | 3.2 | 0.00 | 0.00 | 0.00 | 49 | 1014.4 |
| 20260901021003 | 31 | 113 | 3.2 | 9.7 | 0.00 | 0.00 | 0.00 | 48 | 1014.4 |
| 20260901020503 | 31 | 105 | 3.2 | 11.3 | 0.00 | 0.00 | 0.00 | 48 | 1014.4 |
| 20260901020003 | 31 | 108 | 3.2 | 11.3 | 0.00 | 0.00 | 0.00 | 47 | 1014.3 |
| 20260901015503 | 32 | 111 | 3.2 | 9.7 | 0.00 | 0.00 | 0.00 | 47 | 1014.2 |
| 20260901015004 | 32 | 100 | 3.2 | 9.7 | 0.00 | 0.00 | 0.00 | 46 | 1014.1 |
| 20260901014503 | 32 | 93 | 1.6 | 9.7 | 0.00 | 0.00 | 0.00 | 46 | 1014.0 |
| 20260901014003 | 32 | 93 | 1.6 | 9.7 | 0.00 | 0.00 | 0.00 | 45 | 1014.0 |
| 20260901013503 | 33 | 93 | 0.0 | 3.2 | 0.00 | 0.00 | 0.00 | 44 | 1013.9 |
| 20260901013024 | 33 | 93 | 0.0 | 3.2 | 0.00 | 0.00 | 0.00 | 44 | 1013.9 |
| 20260901012503 | 33 | 93 | 1.6 | 6.4 | 0.00 | 0.00 | 0.00 | 44 | 1013.9 |
| 20260901012003 | 34 | 93 | 1.6 | 6.4 | 0.00 | 0.00 | 0.00 | 42 | 1013.9 |
| 20260901011503 | 34 | 93 | 1.6 | 9.7 | 0.00 | 0.00 | 0.00 | 42 | 1013.8 |
| 20260901011003 | 34 | 92 | 1.6 | 9.7 | 0.00 | 0.00 | 0.00 | 40 | 1013.8 |
| 20260901010503 | 35 | 92 | 1.6 | 6.4 | 0.00 | 0.00 | 0.00 | 39 | 1013.7 |
| 20260901010003 | 35 | 94 | 1.6 | 9.7 | 0.00 | 0.00 | 0.00 | 39 | 1013.6 |
| 20260901005503 | 35 | 97 | 3.2 | 9.7 | 0.00 | 0.00 | 0.00 | 39 | 1013.6 |
| 20260901005003 | 35 | 96 | 3.2 | 9.7 | 0.00 | 0.00 | 0.00 | 39 | 1013.6 |
| 20260901004503 | 35 | 85 | 3.2 | 17.7 | 0.00 | 0.00 | 0.00 | 38 | 1013.5 |
| 20260901004003 | 35 | 96 | 8.0 | 19.3 | 0.00 | 0.00 | 0.00 | 38 | 1013.6 |
| 20260901003503 | 35 | 107 | 11.3 | 25.7 | 0.00 | 0.00 | 0.00 | 38 | 1013.7 |
| 20260901003024 | 35 | 106 | 11.3 | 25.7 | 0.00 | 0.00 | 0.00 | 38 | 1013.6 |
| 20260901002503 | 35 | 104 | 11.3 | 25.7 | 0.00 | 0.00 | 0.00 | 38 | 1013.6 |
| 20260901002003 | 36 | 110 | 9.7 | 25.7 | 0.00 | 0.00 | 0.00 | 38 | 1013.5 |
| 20260901001503 | 36 | 117 | 9.7 | 19.3 | 0.00 | 0.00 | 0.00 | 38 | 1013.5 |
| 20260901001004 | 36 | 125 | 8.0 | 17.7 | 0.00 | 0.00 | 0.00 | 38 | 1013.4 |
| 20260901000504 | 36 | 127 | 6.4 | 16.1 | 0.00 | 0.00 | 0.00 | 39 | 1013.5 |
| 20260901000004 | 36 | 135 | 8.0 | 12.9 | 0.00 | 0.00 | 0.00 | 39 | 1013.4 |
| 20260831235504 | 36 | 144 | 8.0 | 19.3 | 0.00 | 0.00 | 0.00 | 38 | 1013.4 |
| 20260831235004 | 36 | 145 | 8.0 | 19.3 | 0.00 | 0.00 | 0.00 | 39 | 1013.3 |
| 20260831234504 | 36 | 137 | 9.7 | 16.1 | 0.00 | 0.00 | 0.00 | 39 | 1013.4 |
| 20260831234004 | 36 | 122 | 9.7 | 20.9 | 0.00 | 0.00 | 0.00 | 38 | 1013.4 |
| 20260831233504 | 37 | 117 | 8.0 | 20.9 | 0.00 | 0.00 | 0.00 | 38 | 1013.4 |
| 20260831233025 | 37 | 109 | 8.0 | 17.7 | 0.00 | 0.00 | 0.00 | 38 | 1013.3 |
| 20260831232525 | 37 | 106 | 8.0 | 17.7 | 0.00 | 0.00 | 0.00 | 38 | 1013.4 |
| 20260831232004 | 37 | 115 | 8.0 | 16.1 | 0.00 | 0.00 | 0.00 | 37 | 1013.4 |
| 20260831231504 | 37 | 113 | 8.0 | 19.3 | 0.00 | 0.00 | 0.00 | 36 | 1013.4 |
| 20260831231025 | 37 | 106 | 8.0 | 20.9 | 0.00 | 0.00 | 0.00 | 36 | 1013.5 |
| 20260831230525 | 37 | 110 | 9.7 | 20.9 | 0.00 | 0.00 | 0.00 | 37 | 1013.5 |
| 20260831230025 | 37 | 131 | 9.7 | 19.3 | 0.00 | 0.00 | 0.00 | 37 | 1013.5 |
| 20260831225504 | 37 | 146 | 8.0 | 19.3 | 0.00 | 0.00 | 0.00 | 38 | 1013.7 |
| 20260831225004 | 37 | 142 | 6.4 | 16.1 | 0.00 | 0.00 | 0.00 | 38 | 1013.5 |
| 20260831224504 | 37 | 144 | 6.4 | 12.9 | 0.00 | 0.00 | 0.00 | 37 | 1013.6 |
| 20260831224004 | 37 | 129 | 6.4 | 12.9 | 0.00 | 0.00 | 0.00 | 37 | 1013.6 |
| 20260831223504 | 37 | 116 | 9.7 | 20.9 | 0.00 | 0.00 | 0.00 | 37 | 1013.7 |
| 20260831223004 | 38 | 117 | 11.3 | 20.9 | 0.00 | 0.00 | 0.00 | 35 | 1013.7 |
| 20260831222525 | 38 | 115 | 11.3 | 20.9 | 0.00 | 0.00 | 0.00 | 34 | 1013.8 |
| 20260831222004 | 38 | 142 | 9.7 | 20.9 | 0.00 | 0.00 | 0.00 | 34 | 1013.7 |
| 20260831221504 | 39 | 171 | 9.7 | 19.3 | 0.00 | 0.00 | 0.00 | 35 | 1013.7 |
| 20260831221004 | 39 | 174 | 9.7 | 19.3 | 0.00 | 0.00 | 0.00 | 35 | 1013.7 |
| 20260831220504 | 39 | 157 | 9.7 | 27.4 | 0.00 | 0.00 | 0.00 | 34 | 1013.7 |
| 20260831220004 | 39 | 147 | 11.3 | 27.4 | 0.00 | 0.00 | 0.00 | 35 | 1013.8 |
| 20260831215525 | 39 | 158 | 9.7 | 22.5 | 0.00 | 0.00 | 0.00 | 35 | 1013.8 |
| 20260831215004 | 39 | 129 | 8.0 | 20.9 | 0.00 | 0.00 | 0.00 | 35 | 1013.8 |
| 20260831214504 | 39 | 128 | 9.7 | 20.9 | 0.00 | 0.00 | 0.00 | 36 | 1013.9 |
| 20260831214004 | 39 | 154 | 9.7 | 20.9 | 0.00 | 0.00 | 0.00 | 37 | 1014.1 |
| 20260831213504 | 39 | 157 | 6.4 | 16.1 | 0.00 | 0.00 | 0.00 | 34 | 1014.1 |
| 20260831213004 | 39 | 142 | 6.4 | 20.9 | 0.00 | 0.00 | 0.00 | 34 | 1014.2 |
| 20260831212504 | 39 | 132 | 8.0 | 20.9 | 0.00 | 0.00 | 0.00 | 35 | 1014.2 |
| 20260831212004 | 39 | 125 | 8.0 | 19.3 | 0.00 | 0.00 | 0.00 | 35 | 1014.3 |
| 20260831211504 | 39 | 126 | 8.0 | 19.3 | 0.00 | 0.00 | 0.00 | 36 | 1014.4 |
| 20260831211004 | 38 | 156 | 6.4 | 19.3 | 0.00 | 0.00 | 0.00 | 37 | 1014.6 |
| 20260831210504 | 38 | 172 | 8.0 | 16.1 | 0.00 | 0.00 | 0.00 | 36 | 1014.6 |
| 20260831210004 | 38 | 151 | 9.7 | 25.7 | 0.00 | 0.00 | 0.00 | 36 | 1014.5 |